1487343600.66,47049,14.13,73290.5,-6.05,-7.83,-7.83,0,*5D
1487343601.88,47050,14.13,73290.5,-6.05,-7.83,-7.77,0,*5E
1487343603.11,47051,14.13,73292.3,-6.07,-7.87,-7.83,0,*52
1487343604.35,47052,14.13,73288.8,-6.05,-7.91,-7.77,0,*5F
1487343605.55,47053,14.13,73288.0,-6.05,-7.83,-7.83,0,*56
1487343606.78,47054,14.13,73288.3,-6.05,-7.83,-7.77,0,*5A
1487343608.03,47055,14.13,73288.3,-6.01,-7.73,-7.73,0,*54
1487343609.27,47056,14.13,73288.5,-6.05,-7.77,-7.77,0,*53
1487343610.5,47057,14.13,73288.5,-6.07,-7.87,-7.87,0,*50
1487343611.75,47058,14.13,73288.8,-6.05,-7.77,-7.77,0,*5D
1487343612.97,47059,14.13,73288.3,-6.05,-7.83,-7.77,0,*57
1487343614.19,47060,14.13,73290.5,-6.05,-7.91,-7.83,0,*55
1487343615.42,47061,14.13,73288.3,-6.05,-7.83,-7.77,0,*5C
1487343616.67,47062,14.13,73288.8,-6.05,-7.77,-7.77,0,*54
1487343617.92,47063,14.13,73288.8,-6.05,-7.73,-7.65,0,*52
1487343619.17,47064,14.13,73286.5,-6.05,-7.73,-7.73,0,*52
1487343620.42,47065,14.13,73288.8,-6.05,-7.65,-7.65,0,*53
1487343621.67,47066,14.13,73290.0,-6.05,-7.77,-7.73,0,*54
1487343622.91,47067,14.13,73286.8,-6.01,-7.69,-7.69,0,*55
1487343624.15,47068,14.13,73290.0,-6.01,-7.61,-7.69,0,*52
1487343625.39,47069,14.13,73288.0,-6.01,-7.69,-7.69,0,*5B
1487343626.64,47070,14.13,73288.0,-6.01,-7.69,-7.73,0,*58
1487343627.89,47071,14.13,73288.0,-6.01,-7.73,-7.73,0,*52
1487343629.13,47072,14.13,73288.8,-6.01,-7.61,-7.69,0,*59
1487343630.39,47073,14.13,73288.8,-6.01,-7.73,-7.73,0,*50
1487343631.64,47074,14.13,73290.0,-6.01,-7.73,-7.77,0,*53
1487343632.88,47075,14.13,73290.5,-6.01,-7.77,-7.69,0,*59
1487343634.1,47076,14.13,73290.3,-6.05,-7.83,-7.73,0,*5E
1487343635.35,47077,14.13,73288.3,-6.05,-7.77,-7.77,0,*50
1487343636.6,47078,14.13,73286.3,-6.05,-7.73,-7.73,0,*5F
1487343637.86,47079,14.13,73290.5,-6.05,-7.73,-7.73,0,*5E
1487343639.11,47080,14.13,73286.8,-6.05,-7.65,-7.65,0,*58
1487343640.36,47081,14.13,73286.3,-6.05,-7.77,-7.73,0,*5D
1487343641.61,47082,14.13,73284.8,-6.05,-7.73,-7.77,0,*5E
1487343642.86,47083,14.13,73288.0,-6.05,-7.65,-7.73,0,*5C
1487343644.11,47084,14.13,73288.5,-6.05,-7.73,-7.73,0,*5C
1487343645.37,47085,14.13,73288.3,-6.05,-7.73,-7.73,0,*5D
1487343646.61,47086,14.13,73288.8,-6.01,-7.61,-7.69,0,*52
1487343647.88,47087,14.13,73288.0,-5.99,-7.69,-7.73,0,*52
1487343649.12,47088,14.13,73294.3,-6.01,-7.69,-7.69,0,*54
1487343650.36,47089,14.13,73290.8,-6.01,-7.69,-7.73,0,*5E
1487343651.61,47090,14.13,73288.8,-6.01,-7.73,-7.77,0,*59
1487343652.84,47091,14.13,73288.8,-6.01,-7.77,-7.87,0,*53
1487343654.09,47092,14.13,73288.3,-6.01,-7.73,-7.73,0,*5F
1487343655.29,47093,14.13,73292.0,-6.05,-7.83,-7.83,0,*5A
1487343656.49,47094,14.13,73290.5,-6.05,-7.83,-7.83,0,*5D
1487343657.74,47095,14.13,73290.0,-6.05,-7.77,-7.73,0,*58
1487343658.97,47096,14.13,73290.0,-6.05,-7.73,-7.83,0,*50
1487343660.22,47097,14.13,73288.5,-6.05,-7.73,-7.73,0,*5E
1487343661.47,47098,14.13,73290.8,-6.05,-7.77,-7.77,0,*51
1487343662.69,47099,14.13,73288.8,-6.05,-7.77,-7.83,0,*5B
1487343663.93,47100,14.13,73286.8,-6.05,-7.95,-7.95,0,*51
1487343665.18,47101,14.13,73288.8,-6.05,-7.95,-7.95,0,*50
1487343666.42,47102,14.13,73288.3,-6.05,-7.91,-7.95,0,*57
1487343667.66,47103,14.13,73290.5,-6.05,-7.95,-7.91,0,*56
1487343668.91,47104,14.13,73290.5,-6.05,-7.91,-7.91,0,*55
1487343670.13,47105,14.13,73290.0,-6.05,-7.87,-7.99,0,*5B
1487343671.35,47106,14.13,73288.8,-6.07,-7.87,-7.87,0,*55
1487343672.61,47107,14.13,73288.3,-6.05,-7.73,-7.65,0,*51
1487343673.86,47108,14.13,73288.8,-6.07,-7.83,-7.77,0,*50
1487343675.08,47109,14.13,73290.3,-6.07,-7.87,-7.83,0,*5E
1487343676.31,47110,14.13,73288.3,-6.07,-7.83,-7.83,0,*52
1487343677.56,47111,14.13,73288.0,-6.07,-7.83,-7.77,0,*58
1487343678.79,47112,14.13,73292.3,-6.07,-7.87,-7.83,0,*54
1487343680.01,47113,14.13,73290.0,-6.07,-7.87,-7.87,0,*51
1487343681.25,47114,14.13,73290.8,-6.05,-7.91,-7.95,0,*50
1487343682.51,47115,14.13,73288.5,-6.07,-7.99,-7.83,0,*5C
1487343683.75,47116,14.13,73288.5,-6.07,-7.83,-7.69,0,*50
1487343685.02,47117,14.13,73290.5,-6.07,-7.69,-7.69,0,*55
1487343686.29,47118,14.13,73292.3,-6.07,-7.69,-7.69,0,*5A
1487343687.56,47119,14.13,73288.0,-6.07,-7.69,-7.69,0,*5B
1487343688.81,47120,14.13,73288.5,-6.05,-7.65,-7.65,0,*53
1487343690.07,47121,14.13,73288.8,-6.05,-7.73,-7.73,0,*52
1487343691.32,47122,14.13,73288.3,-6.05,-7.65,-7.65,0,*51
1487343692.59,47123,14.13,73288.5,-6.07,-7.69,-7.65,0,*5E
1487343693.84,47124,14.13,73288.0,-6.05,-7.65,-7.61,0,*53
1487343695.09,47125,14.13,73290.3,-6.05,-7.65,-7.61,0,*52
1487343696.37,47126,14.13,73288.5,-6.07,-7.77,-7.61,0,*50
1487343697.62,47127,14.13,73294.8,-6.05,-7.73,-7.65,0,*53
1487343698.88,47128,14.13,73286.8,-6.05,-7.65,-7.61,0,*5F
1487343700.13,47129,14.13,73292.0,-6.05,-7.65,-7.61,0,*5E
1487343701.38,47130,14.13,73288.8,-6.05,-7.65,-7.65,0,*52
1487343702.63,47131,14.13,73290.5,-6.05,-7.73,-7.73,0,*53
1487343703.88,47132,14.13,73290.3,-6.07,-7.83,-7.77,0,*59
1487343705.11,47133,14.13,73288.5,-6.07,-7.83,-7.83,0,*53
1487343706.36,47134,14.13,73292.8,-6.05,-7.73,-7.65,0,*51
1487343707.61,47135,14.13,73288.8,-6.05,-7.65,-7.73,0,*50
1487343708.86,47136,14.13,73290.8,-6.05,-7.69,-7.69,0,*54
1487343710.11,47137,14.13,73292.8,-6.05,-7.65,-7.61,0,*51
1487343711.36,47138,14.13,73290.3,-6.05,-7.65,-7.61,0,*5E
1487343712.58,47139,14.13,73288.5,-6.05,-7.65,-7.53,0,*5E
1487343713.83,47140,14.13,73294.0,-6.05,-7.65,-7.61,0,*51
1487343715.09,47141,14.13,73294.8,-6.05,-7.61,-7.61,0,*54
1487343716.34,47142,14.13,73290.5,-6.05,-7.61,-7.61,0,*57
1487343717.56,47143,14.13,73290.5,-6.05,-7.61,-7.53,0,*57
1487343718.83,47144,14.13,73290.5,-6.07,-7.65,-7.65,0,*53
1487343720.09,47145,14.13,73292.5,-6.05,-7.61,-7.61,0,*50
1487343721.31,47146,14.13,73288.8,-6.05,-7.61,-7.53,0,*52
1487343722.56,47147,14.13,73288.3,-6.05,-7.65,-7.65,0,*52
1487343723.8,47148,14.13,73290.5,-6.05,-7.77,-7.73,0,*59
1487343725.0,47149,14.13,73290.5,-6.05,-7.83,-7.83,0,*5C
1487343726.25,47150,14.13,73292.8,-6.05,-7.91,-7.91,0,*54
1487343727.49,47151,14.13,73292.8,-6.05,-7.91,-7.95,0,*51
1487343728.73,47152,14.13,73286.8,-6.05,-7.95,-7.95,0,*56
1487343730.01,47153,14.13,73286.3,-6.07,-8.07,-8.07,0,*55
1487343731.26,47154,14.13,73284.8,-6.05,-7.91,-7.91,0,*50
1487343732.5,47155,14.13,73286.3,-6.05,-7.91,-7.91,0,*51
1487343733.74,47156,14.13,73288.0,-6.05,-7.91,-7.91,0,*52
1487343734.99,47157,14.13,73292.3,-6.05,-7.95,-7.95,0,*53
1487343736.23,47158,14.13,73286.3,-6.05,-7.95,-7.95,0,*5C
1487343737.5,47159,14.13,73290.0,-6.07,-7.99,-7.95,0,*53
1487343738.78,47160,14.13,73288.8,-6.07,-8.07,-8.11,0,*52
1487343740.06,47161,14.13,73286.5,-6.07,-8.11,-8.07,0,*53
1487343741.3,47162,14.13,73290.8,-6.05,-8.03,-7.95,0,*55
1487343742.58,47163,14.13,73286.3,-6.07,-8.07,-8.07,0,*56
1487343743.81,47164,14.13,73290.0,-6.09,-8.21,-8.07,0,*5B
1487343745.06,47165,14.13,73288.8,-6.09,-8.07,-8.07,0,*5E
1487343746.32,47166,14.13,73284.8,-6.09,-7.99,-8.07,0,*55
1487343747.59,47167,14.13,73286.8,-6.07,-8.11,-8.11,0,*52
1487343748.88,47168,14.13,73290.0,-6.07,-8.11,-8.07,0,*5A
1487343750.16,47169,14.13,73288.0,-6.07,-8.07,-8.07,0,*5C
1487343751.4,47170,14.13,73290.3,-6.09,-7.99,-7.99,0,*5A
1487343752.66,47171,14.06,73286.3,-6.09,-7.99,-8.07,0,*53
1487343753.9,47172,14.13,73288.5,-6.09,-7.99,-7.99,0,*58
1487343755.17,47173,14.13,73286.0,-6.11,-7.91,-7.99,0,*58
1487343756.37,47174,14.13,73286.5,-6.09,-7.87,-7.87,0,*5E
1487343757.63,47175,14.13,73282.8,-6.09,-8.07,-8.07,0,*5F
1487343758.9,47176,14.13,73284.3,-6.11,-7.99,-8.11,0,*5A
1487343760.15,47177,14.06,73286.8,-6.09,-7.95,-7.95,0,*5D
1487343761.39,47178,14.13,73288.0,-6.09,-7.99,-7.99,0,*52
1487343762.64,47179,14.13,73288.0,-6.09,-7.99,-7.99,0,*53
1487343763.9,47180,14.13,73290.5,-6.09,-8.07,-8.07,0,*55
1487343765.15,47181,14.13,73290.0,-6.09,-8.11,-8.11,0,*54
1487343766.37,47182,14.13,73284.8,-6.11,-8.25,-8.17,0,*5F
1487343767.65,47183,14.13,73286.0,-6.11,-8.11,-8.11,0,*5F
1487343768.89,47184,14.13,73290.3,-6.11,-8.29,-8.11,0,*53
1487343770.17,47185,14.13,73288.3,-6.11,-8.11,-8.11,0,*59
1487343771.42,47186,14.13,73288.3,-6.13,-8.11,-8.11,0,*58
1487343772.65,47187,14.06,73286.5,-6.09,-8.11,-8.21,0,*51
1487343773.87,47188,14.13,73286.0,-6.11,-8.25,-8.25,0,*54
1487343775.09,47189,14.13,73284.8,-6.11,-8.17,-8.17,0,*55
1487343776.37,47190,14.13,73286.0,-6.11,-8.11,-8.03,0,*5E
1487343777.63,47191,14.13,73284.8,-6.11,-8.03,-8.03,0,*5C
1487343778.85,47192,14.06,73284.8,-6.11,-8.17,-8.17,0,*5F
1487343780.1,47193,14.13,73286.5,-6.13,-8.03,-8.03,0,*5C
1487343781.34,47194,14.06,73286.3,-6.13,-8.03,-8.03,0,*5B
1487343782.58,47195,14.13,73288.0,-6.13,-8.03,-8.03,0,*5A
1487343783.85,47196,14.06,73284.8,-6.11,-8.11,-8.03,0,*58
1487343785.1,47197,14.13,73286.3,-6.13,-7.99,-7.99,0,*58
1487343786.35,47198,14.13,73288.8,-6.13,-7.91,-7.91,0,*57
1487343787.55,47199,14.13,73288.3,-6.13,-7.87,-7.87,0,*56
1487343788.8,47200,14.06,73284.5,-6.13,-7.91,-7.91,0,*55
1487343790.0,47201,14.13,73288.0,-6.13,-7.87,-7.87,0,*54
1487343791.24,47202,14.13,73288.5,-6.13,-7.91,-7.91,0,*57
1487343792.49,47203,14.13,73288.0,-6.13,-7.91,-7.91,0,*56
1487343793.75,47204,14.13,73288.3,-6.11,-7.73,-7.87,0,*58
1487343795.01,47205,14.13,73286.8,-6.11,-7.73,-7.83,0,*5D
1487343796.23,47206,14.13,73288.8,-6.13,-7.91,-7.87,0,*54
1487343797.43,47207,14.06,73284.3,-6.13,-7.83,-7.83,0,*52
1487343798.64,47208,14.06,73288.8,-6.13,-7.87,-7.87,0,*5D
1487343799.88,47209,14.13,73284.5,-6.13,-7.99,-7.99,0,*5C
1487343801.13,47210,14.13,73290.3,-6.13,-7.99,-8.03,0,*58
1487343802.38,47211,14.06,73284.8,-6.13,-7.99,-7.99,0,*55
1487343803.63,47212,14.06,73286.8,-6.13,-8.11,-8.11,0,*56
1487343804.88,47213,14.13,73290.0,-6.13,-8.03,-7.99,0,*5B
1487343806.12,47214,14.06,73286.0,-6.13,-7.99,-8.03,0,*5C
1487343807.37,47215,14.06,73284.3,-6.13,-8.03,-8.11,0,*52
1487343808.59,47216,14.13,73288.5,-6.13,-8.11,-8.25,0,*55
1487343809.79,47217,14.13,73288.5,-6.13,-8.29,-8.41,0,*5D
1487343810.98,47218,14.13,73286.8,-6.13,-8.41,-8.55,0,*59
1487343812.18,47219,14.06,73286.8,-6.13,-8.37,-8.55,0,*59
1487343813.37,47220,14.06,73284.3,-6.13,-8.37,-8.55,0,*53
1487343814.6,47221,14.06,73286.8,-6.13,-8.37,-8.51,0,*56
1487343815.82,47222,14.13,73286.3,-6.13,-8.25,-8.51,0,*56
1487343817.04,47223,14.06,73286.8,-6.13,-8.29,-8.51,0,*5B
1487343818.27,47224,14.13,73284.0,-6.13,-8.25,-8.51,0,*50
1487343819.49,47225,14.13,73286.0,-6.13,-8.37,-8.51,0,*52
1487343820.69,47226,14.06,73282.0,-6.13,-8.29,-8.41,0,*5F
1487343821.91,47227,14.13,73286.3,-6.13,-8.37,-8.51,0,*50
1487343823.14,47228,14.13,73284.0,-6.13,-8.37,-8.51,0,*5F
1487343824.33,47229,14.13,73282.8,-6.13,-8.29,-8.55,0,*55
1487343825.52,47230,14.06,73282.5,-6.13,-8.29,-8.55,0,*5D
1487343826.71,47231,14.13,73284.8,-6.13,-8.41,-8.55,0,*52
1487343827.91,47232,14.13,73284.0,-6.13,-8.55,-8.67,0,*55
1487343829.1,47233,14.06,73280.0,-6.13,-8.67,-8.71,0,*52
1487343830.32,47234,14.13,73282.8,-6.13,-8.51,-8.55,0,*56
1487343831.55,47235,14.06,73278.5,-6.13,-8.41,-8.51,0,*52
1487343832.74,47236,14.13,73280.8,-6.13,-8.41,-8.41,0,*50
1487343833.95,47237,14.06,73280.5,-6.13,-8.41,-8.37,0,*50
1487343835.21,47238,14.13,73282.8,-6.11,-8.51,-8.37,0,*5C
1487343836.43,47239,14.13,73280.0,-6.13,-8.51,-8.25,0,*5C
1487343837.63,47240,14.13,73282.3,-6.13,-8.37,-8.25,0,*52
1487343838.83,47241,14.13,73280.0,-6.13,-8.29,-8.17,0,*5D
1487343840.05,47242,14.06,73282.5,-6.13,-8.29,-8.11,0,*58
1487343841.27,47243,14.06,73282.3,-6.13,-8.25,-7.99,0,*5A
1487343842.5,47244,14.06,73278.3,-6.13,-8.17,-8.03,0,*50
1487343843.72,47245,14.06,73282.5,-6.13,-8.17,-7.99,0,*5D
1487343844.97,47246,14.06,73276.5,-6.13,-8.11,-8.03,0,*54
1487343846.19,47247,14.13,73280.3,-6.13,-8.17,-8.03,0,*53
1487343847.44,47248,14.13,73282.8,-6.13,-8.11,-8.03,0,*5A
1487343848.69,47249,14.13,73282.3,-6.13,-8.11,-7.99,0,*57
1487343849.94,47250,14.13,73282.3,-6.13,-8.03,-7.99,0,*5C
1487343851.18,47251,14.06,73280.3,-6.13,-8.03,-7.99,0,*5D
1487343852.43,47252,14.13,73280.5,-6.13,-8.11,-8.11,0,*52
1487343853.69,47253,14.06,73278.8,-6.13,-8.11,-7.99,0,*5C
1487343854.93,47254,14.06,73280.8,-6.13,-7.91,-7.99,0,*5C
1487343856.13,47255,14.13,73280.8,-6.13,-7.87,-7.87,0,*55
1487343857.34,47256,14.06,73276.8,-6.13,-7.87,-7.87,0,*56
1487343858.56,47257,14.06,73276.3,-6.13,-7.91,-7.87,0,*50
1487343859.81,47258,14.06,73278.0,-6.13,-7.99,-7.99,0,*58
1487343861.04,47259,14.13,73280.3,-6.13,-7.73,-7.87,0,*52
1487343862.29,47260,14.06,73276.0,-6.13,-8.03,-8.03,0,*53
1487343863.48,47261,14.06,73278.3,-6.13,-8.17,-8.17,0,*52
1487343864.7,47262,14.06,73278.3,-6.13,-8.03,-8.17,0,*54
1487343865.9,47263,14.13,73276.0,-6.13,-8.17,-8.25,0,*51
1487343867.1,47264,14.06,73276.3,-6.13,-8.17,-8.29,0,*5A
1487343868.32,47265,14.06,73276.0,-6.13,-8.11,-8.25,0,*51
1487343869.57,47266,14.06,73276.5,-6.13,-8.03,-8.11,0,*56
1487343870.81,47267,14.06,73278.3,-6.13,-7.99,-8.03,0,*58
1487343872.03,47268,14.06,73278.3,-6.13,-8.03,-8.17,0,*5E
1487343873.28,47269,14.06,73278.8,-6.13,-8.03,-8.11,0,*59
1487343874.53,47270,14.06,73278.3,-6.13,-8.11,-8.11,0,*52
1487343875.76,47271,14.06,73278.5,-6.13,-8.11,-8.17,0,*55
1487343876.98,47272,14.06,73278.5,-6.13,-8.11,-8.17,0,*56
1487343878.22,47273,14.06,73280.5,-6.13,-8.03,-8.03,0,*51
1487343879.47,47274,14.13,73284.3,-6.13,-7.99,-7.99,0,*56
1487343880.69,47275,14.06,73282.5,-6.13,-8.03,-8.17,0,*52
1487343881.91,47276,14.06,73280.3,-6.13,-8.11,-8.25,0,*53
1487343883.14,47277,14.06,73284.0,-6.13,-7.99,-8.17,0,*5C
1487343884.36,47278,14.13,73284.8,-6.13,-7.99,-8.17,0,*53
1487343885.58,47279,14.13,73286.5,-6.13,-8.03,-8.17,0,*5E
1487343886.8,47280,14.13,73284.5,-6.13,-7.87,-8.11,0,*5D
1487343888.02,47281,14.06,73284.8,-6.13,-7.99,-8.17,0,*55
1487343889.24,47282,14.13,73290.3,-6.13,-7.99,-8.17,0,*56
1487343890.49,47283,14.13,73286.5,-6.13,-7.91,-8.11,0,*59
1487343891.74,47284,14.13,73284.5,-6.13,-7.99,-8.11,0,*56
1487343892.98,47285,14.06,73282.3,-6.13,-7.99,-8.03,0,*54
1487343894.23,47286,14.06,73284.5,-6.13,-7.91,-8.03,0,*5F
1487343895.47,47287,14.06,73284.0,-6.13,-7.91,-8.03,0,*5E
1487343896.71,47288,14.06,73284.5,-6.13,-8.03,-8.11,0,*56
1487343897.96,47289,14.06,73284.3,-6.13,-7.99,-8.03,0,*58
1487343899.21,47290,14.13,73288.8,-6.13,-7.99,-8.03,0,*50
1487343900.4,47291,14.06,73284.8,-6.13,-8.17,-8.17,0,*5D
1487343901.6,47292,14.06,73284.0,-6.13,-8.25,-8.17,0,*5F
1487343902.8,47293,14.13,73286.5,-6.13,-8.17,-8.17,0,*5F
1487343904.0,47294,14.06,73282.5,-6.13,-8.25,-8.17,0,*59
1487343905.2,47295,14.06,73286.3,-6.13,-8.25,-8.17,0,*58
1487343906.45,47296,14.06,73280.8,-6.13,-8.11,-8.11,0,*5A
1487343907.67,47297,14.13,73284.3,-6.13,-8.11,-8.17,0,*5D
1487343908.87,47298,14.13,73286.3,-6.13,-8.25,-8.25,0,*54
1487343910.12,47299,14.13,73288.3,-6.13,-8.11,-8.11,0,*55
1487343911.32,47300,14.13,73290.0,-6.13,-8.17,-8.17,0,*54
1487343912.52,47301,14.06,73288.0,-6.13,-8.17,-8.25,0,*54
1487343913.72,47302,14.13,73288.8,-6.13,-8.17,-8.25,0,*57
1487343914.94,47303,14.06,73284.8,-6.13,-8.41,-8.51,0,*56
1487343916.14,47304,14.06,73284.3,-6.13,-8.37,-8.41,0,*51
1487343917.34,47305,14.06,73286.5,-6.13,-8.25,-8.25,0,*51
1487343918.54,47306,14.06,73286.0,-6.13,-8.17,-8.25,0,*53
1487343919.74,47307,14.06,73284.8,-6.13,-8.29,-8.29,0,*53
1487343920.93,47308,14.06,73284.8,-6.13,-8.29,-8.29,0,*5C
1487343922.13,47309,14.06,73286.8,-6.13,-8.25,-8.25,0,*5D
1487343923.35,47310,14.06,73286.3,-6.13,-8.11,-8.25,0,*52
1487343924.55,47311,14.06,73284.3,-6.13,-8.29,-8.29,0,*54
1487343925.75,47312,14.06,73286.3,-6.13,-8.25,-8.37,0,*54
1487343926.98,47313,14.06,73286.0,-6.13,-8.11,-8.29,0,*5D
1487343928.18,47314,14.13,73288.5,-6.13,-8.29,-8.37,0,*5E
1487343929.4,47315,14.06,73284.0,-6.13,-8.37,-8.51,0,*50
1487343930.63,47316,14.13,73288.3,-6.13,-8.41,-8.51,0,*52
1487343931.82,47317,14.13,73288.3,-6.13,-8.25,-8.55,0,*55
1487343933.05,47318,14.06,73286.5,-6.13,-8.25,-8.51,0,*5E
1487343934.24,47319,14.06,73286.5,-6.13,-8.25,-8.55,0,*5B
1487343935.43,47320,14.06,73286.5,-6.13,-8.29,-8.63,0,*58
1487343936.62,47321,14.06,73286.3,-6.13,-8.29,-8.67,0,*5D
1487343937.84,47322,14.06,73284.8,-6.11,-8.37,-8.67,0,*53
1487343939.07,47323,14.06,73284.5,-6.11,-8.55,-8.93,0,*5D
1487343940.28,47324,14.06,73284.8,-6.13,-8.81,-9.31,0,*58
1487343941.51,47325,14.06,73284.8,-6.13,-8.67,-9.11,0,*53
1487343942.7,47326,14.06,73284.8,-6.13,-8.67,-9.19,0,*58
1487343943.92,47327,14.06,73284.5,-6.13,-8.81,-9.19,0,*51
1487343945.12,47328,14.06,73284.0,-6.13,-8.85,-9.31,0,*50
1487343946.36,47329,14.06,73286.0,-6.13,-8.93,-9.37,0,*50
1487343947.56,47330,14.06,73280.5,-6.13,-8.85,-9.31,0,*59
1487343948.76,47331,14.13,73284.5,-6.13,-8.85,-9.31,0,*58
1487343949.99,47332,14.06,73286.0,-6.13,-8.93,-9.37,0,*5A
1487343951.25,47333,14.06,73282.3,-6.11,-8.93,-9.45,0,*5C
1487343952.48,47334,14.06,73284.8,-6.11,-8.97,-9.67,0,*5F
1487343953.71,47335,14.06,73286.5,-6.11,-9.05,-9.89,0,*54
1487343954.97,47336,14.06,73282.3,-6.11,-9.11,-10.01,0,*6A
1487343956.21,47337,14.06,73284.0,-6.11,-9.31,-10.01,0,*69
1487343957.48,47338,14.06,73284.8,-6.11,-9.37,-10.27,0,*64
1487343958.76,47339,14.06,73286.0,-6.11,-9.61,-10.41,0,*66
1487343959.99,47340,14.06,73282.5,-6.11,-9.79,-10.49,0,*69
1487343961.24,47341,14.06,73282.5,-6.11,-9.93,-10.75,0,*63
1487343962.47,47342,14.06,73284.8,-6.11,-10.01,-10.85,0,*5C
1487343963.71,47343,14.06,73282.8,-6.11,-10.15,-11.01,0,*55
1487343964.94,47344,14.06,73282.3,-6.11,-10.19,-11.15,0,*5B
1487343966.2,47345,14.13,73284.5,-6.11,-10.45,-11.33,0,*57
1487343967.45,47346,14.06,73282.0,-6.11,-10.45,-11.33,0,*54
1487343968.68,47347,14.06,73282.5,-6.11,-10.45,-11.45,0,*54
1487343969.94,47348,14.06,73278.5,-6.11,-10.85,-11.97,0,*58
1487343971.2,47349,14.06,73286.5,-6.11,-11.11,-12.53,0,*5E
1487343972.46,47350,14.06,73288.3,-6.11,-11.23,-12.53,0,*57
1487343973.73,47351,14.06,73284.0,-6.11,-11.59,-12.97,0,*53
1487343974.97,47352,14.06,73284.5,-6.13,-11.67,-12.93,0,*5B
1487343976.22,47353,14.06,73286.5,-6.13,-11.73,-12.83,0,*5E
1487343977.48,47354,14.06,73280.3,-6.13,-11.73,-12.79,0,*5C
1487343978.75,47355,14.06,73282.8,-6.13,-11.81,-12.71,0,*58
1487343979.99,47356,14.06,73284.0,-6.13,-11.93,-12.93,0,*54
1487343981.23,47357,14.06,73282.8,-6.13,-12.11,-12.97,0,*58
1487343982.45,47358,14.06,73286.0,-6.13,-12.21,-12.97,0,*54
1487343983.72,47359,14.06,73282.5,-6.13,-12.07,-12.79,0,*51
1487343984.97,47360,14.06,73282.3,-6.13,-11.81,-12.57,0,*5A
1487343986.23,47361,14.06,73284.0,-6.13,-11.85,-12.53,0,*5B
1487343987.47,47362,14.06,73286.8,-6.13,-11.85,-12.43,0,*59
1487343988.73,47363,14.06,73284.5,-6.13,-11.97,-12.53,0,*5A
1487343989.99,47364,14.06,73286.3,-6.13,-11.97,-12.57,0,*59
1487343991.24,47365,14.06,73290.0,-6.13,-11.93,-12.39,0,*54
1487343992.47,47366,14.06,73286.8,-6.13,-11.85,-12.29,0,*51
1487343993.71,47367,14.06,73286.8,-6.13,-11.85,-12.29,0,*50
1487343994.96,47368,14.06,73286.5,-6.13,-11.93,-12.25,0,*54
1487343996.21,47369,14.06,73282.5,-6.13,-11.81,-11.97,0,*5C
1487343997.47,47370,14.06,73284.0,-6.13,-11.73,-11.85,0,*5A
1487343998.73,47371,14.13,73284.8,-6.13,-11.55,-11.73,0,*56
1487343999.97,47372,14.06,73280.0,-6.13,-11.41,-11.55,0,*54
1487344001.2,47373,14.06,73280.8,-6.13,-11.11,-11.33,0,*50
1487344002.41,47374,14.06,73278.5,-6.13,-11.01,-11.23,0,*57
1487344003.65,47375,14.06,73278.0,-6.13,-10.75,-11.15,0,*51
1487344004.89,47376,14.06,73282.5,-6.13,-10.75,-11.01,0,*57
1487344006.13,47377,14.06,73276.3,-6.13,-10.71,-11.01,0,*52
1487344007.33,47378,14.06,73282.5,-6.13,-10.89,-11.11,0,*5B
1487344008.54,47379,14.06,73280.3,-6.13,-10.85,-11.11,0,*56
1487344009.78,47380,14.06,73282.5,-6.13,-10.75,-10.89,0,*5F
1487344011.04,47381,14.06,73280.3,-6.13,-10.71,-10.71,0,*5D
1487344012.28,47382,14.06,73282.3,-6.13,-10.85,-10.75,0,*51
1487344013.54,47383,14.06,73282.5,-6.17,-10.75,-10.63,0,*5C
1487344014.78,47384,14.06,73282.5,-6.17,-10.63,-10.35,0,*5F
1487344016.03,47385,14.06,73282.3,-6.17,-10.63,-10.31,0,*5A
1487344017.3,47386,14.06,73280.5,-6.19,-10.71,-10.27,0,*53
1487344018.54,47387,14.06,73282.3,-6.13,-10.71,-10.15,0,*59
1487344019.76,47388,14.06,73276.8,-6.17,-10.89,-10.19,0,*59
1487344021.01,47389,14.06,73276.0,-6.17,-10.63,-9.83,0,*67
1487344022.21,47390,14.06,73278.5,-6.17,-10.53,-9.79,0,*69
1487344023.41,47391,14.06,73282.0,-6.17,-10.53,-9.71,0,*60
1487344024.65,47392,14.06,73280.3,-6.17,-10.35,-9.53,0,*63
1487344025.88,47393,14.06,73280.3,-6.17,-10.35,-9.41,0,*61
1487344027.11,47394,14.06,73278.0,-6.17,-10.35,-9.53,0,*65
1487344028.31,47395,14.06,73276.8,-6.17,-10.09,-9.27,0,*68
1487344029.55,47396,14.06,73278.0,-6.17,-9.83,-9.15,0,*50
1487344030.74,47397,14.06,73276.3,-6.17,-9.67,-8.97,0,*50
1487344031.96,47398,14.06,73272.5,-6.17,-9.61,-8.97,0,*59
1487344033.18,47399,14.06,73274.8,-6.17,-9.53,-8.85,0,*5A
1487344034.4,47400,14.06,73276.8,-6.17,-9.37,-8.67,0,*53
1487344035.59,47401,14.06,73278.3,-6.17,-9.23,-8.59,0,*5A
1487344036.79,47402,14.06,73278.8,-6.17,-9.05,-8.59,0,*5D
1487344037.99,47403,14.06,73276.5,-6.17,-8.85,-8.45,0,*58
1487344039.19,47404,14.06,73276.8,-6.13,-8.67,-8.25,0,*51
1487344040.42,47405,14.06,73274.0,-6.13,-8.85,-8.51,0,*5F
1487344041.66,47406,14.06,73276.0,-6.17,-8.81,-8.51,0,*5C
1487344042.86,47407,14.06,73274.5,-6.17,-8.75,-8.45,0,*53
1487344044.06,47408,14.06,73278.8,-6.13,-8.63,-8.29,0,*55
1487344045.26,47409,14.06,73278.0,-6.13,-8.55,-8.29,0,*51
1487344046.46,47410,14.06,73282.0,-6.13,-8.55,-8.29,0,*59
1487344047.69,47411,14.06,73278.8,-6.13,-8.51,-8.25,0,*50
1487344048.89,47412,14.06,73280.5,-6.13,-8.41,-8.25,0,*52
1487344050.08,47413,14.06,73280.3,-6.13,-8.41,-8.29,0,*5F
1487344051.28,47414,14.06,73282.3,-6.13,-8.37,-8.25,0,*55
1487344052.48,47415,14.06,73280.0,-6.13,-8.37,-8.29,0,*58
1487344053.68,47416,14.06,73278.3,-6.13,-8.29,-8.25,0,*58
1487344054.88,47417,14.06,73280.5,-6.13,-8.41,-8.29,0,*5B
1487344056.07,47418,14.06,73282.8,-6.13,-8.37,-8.29,0,*55
1487344057.27,47419,14.06,73284.0,-6.13,-8.25,-8.17,0,*5A
1487344058.47,47420,14.06,73284.8,-6.17,-8.29,-8.29,0,*55
1487344059.66,47421,14.06,73282.3,-6.17,-8.29,-8.21,0,*5C
1487344060.86,47422,14.06,73282.5,-6.17,-8.17,-8.17,0,*57
1487344062.11,47423,14.06,73282.8,-6.13,-8.11,-8.11,0,*52
1487344063.34,47424,14.06,73284.0,-6.13,-8.11,-8.17,0,*53
1487344064.58,47425,14.06,73282.5,-6.13,-8.03,-7.99,0,*58
1487344065.83,47426,14.06,73280.3,-6.13,-7.91,-7.99,0,*5F
1487344067.07,47427,14.06,73282.0,-6.13,-8.03,-7.99,0,*5A
1487344068.32,47428,14.06,73282.8,-6.13,-7.99,-7.99,0,*59
1487344069.57,47429,14.06,73284.3,-6.13,-7.99,-7.99,0,*58
1487344070.81,47430,14.06,73284.3,-6.13,-7.91,-7.99,0,*58
1487344072.06,47431,14.06,73280.0,-6.13,-7.99,-8.03,0,*5D
1487344073.3,47432,14.06,73286.8,-6.13,-8.03,-7.99,0,*5E
1487344074.53,47433,14.06,73284.5,-6.13,-8.11,-8.17,0,*55
1487344075.73,47434,14.06,73282.5,-6.13,-8.17,-8.17,0,*54
1487344076.93,47435,14.06,73282.8,-6.13,-8.41,-8.41,0,*55
1487344078.15,47436,14.06,73282.8,-6.13,-8.55,-8.51,0,*52
1487344079.4,47437,14.06,73282.5,-6.13,-8.51,-8.51,0,*57
1487344080.63,47438,14.06,73282.8,-6.13,-8.51,-8.41,0,*59
1487344081.84,47439,14.06,73280.0,-6.13,-8.37,-8.37,0,*59
1487344083.04,47440,14.06,73282.5,-6.13,-8.37,-8.37,0,*57
1487344084.24,47441,14.06,73286.5,-6.13,-8.29,-8.25,0,*5A
1487344085.43,47442,14.06,73280.0,-6.17,-8.41,-8.33,0,*54
1487344086.63,47443,14.06,73280.0,-6.17,-8.45,-8.41,0,*54
1487344087.88,47444,14.06,73284.3,-6.13,-8.51,-8.51,0,*53
1487344089.11,47445,14.06,73282.3,-6.13,-8.51,-8.41,0,*53
1487344090.31,47446,14.06,73282.5,-6.13,-8.41,-8.41,0,*51
1487344091.5,47447,14.06,73280.3,-6.17,-8.41,-8.33,0,*51
1487344092.7,47448,14.06,73280.8,-6.17,-8.55,-8.45,0,*5A
1487344093.9,47449,14.06,73280.8,-6.17,-8.45,-8.41,0,*5E
1487344095.09,47450,14.06,73282.0,-6.17,-8.29,-8.21,0,*5A
1487344096.29,47451,14.06,73282.3,-6.17,-8.29,-8.29,0,*53
1487344097.48,47452,14.06,73280.5,-6.17,-8.29,-8.17,0,*5D
1487344098.67,47453,14.06,73282.8,-6.17,-8.29,-8.17,0,*5C
1487344099.9,47454,14.06,73280.8,-6.17,-8.21,-8.07,0,*52
1487344101.13,47455,14.06,73282.5,-6.17,-8.21,-8.07,0,*53
1487344102.35,47456,14.06,73280.0,-6.19,-8.21,-8.25,0,*5E
1487344103.58,47457,14.06,73280.0,-6.19,-8.25,-8.25,0,*5B
1487344104.77,47458,14.06,73278.5,-6.17,-8.17,-8.21,0,*5F
1487344106.03,47459,14.06,73284.5,-6.17,-8.07,-8.07,0,*5B
1487344107.23,47460,14.06,73276.5,-6.17,-8.17,-8.17,0,*51